Regional Weather Roundup
Issued by NWS

Home | Current Version | Previous Version | Text Only | Print | Product List | Glossary On
Versions: 1 2 3 4 5 6 7 8 9 10 11 12 13 14 15 16 17 18 19 20 21 22 23 24 25 26 27 28 29 30 31 32 33 34 35 36 37 38 39 40 41 42 43 44 45 46 47 48 49 50
000
ASUS43 KTOP 281759
RWRKS

WEATHER ROUNDUP FOR KANSAS
NATIONAL WEATHER SERVICE GOODLAND KS
100 PM CDT WED JUN 28 2017

NOTE:  "FAIR" INDICATES FEW OR NO CLOUDS BELOW 12,000 FEET WITH NO
SIGNIFICANT WEATHER AND/OR OBSTRUCTIONS TO VISIBILITY.

KSZ001>006-013>018-027>032-041>047-281900-
NORTHWEST KANSAS

CITY           SKY/WX    TMP DP  RH WIND       PRES   REMARKS
GOODLAND       SUNNY     84  50  30 N8        29.85S
6HR MIN TEMP:  59; 6HR MAX TEMP:  84;

HAYS           MOSUNNY   89  66  46 SW15G23   29.75S
HILL CITY      SUNNY     86  64  47 VRB3      29.76F
6HR MIN TEMP:  71; 6HR MAX TEMP:  87;

RUSSELL        MOSUNNY   89  66  46 SW16G28   29.74S
6HR MIN TEMP:  69; 6HR MAX TEMP:  89;

$$

KSZ061>065-074>080-084>089-281900-
SOUTHWEST KANSAS

CITY           SKY/WX    TMP DP  RH WIND       PRES   REMARKS
DODGE CITY     SUNNY     89  62  40 SW18G25   29.78S
6HR MIN TEMP:  70; 6HR MAX TEMP:  89;

ELKHART          N/A    N/A N/A N/A MISG        N/A
GARDEN CITY    SUNNY     88  58  36 SE6       29.78F
6HR MIN TEMP:  70; 6HR MAX TEMP:  88;

GREAT BEND     MOSUNNY   86  67  52 S18G25    29.77R
LIBERAL        SUNNY     89  58  34 SW13      29.79S
$$

KSZ066>073-081>083-090>101-281900-
SOUTHEAST KANSAS

CITY           SKY/WX    TMP DP  RH WIND       PRES   REMARKS
CHANUTE        MOSUNNY   87  70  56 S22G31    29.85F
COFFEYVILLE    MOSUNNY   88  71  57 S20G26    29.86F
6HR MIN TEMP:  70; 6HR MAX TEMP:  88; 6HR PCP: TRACE;

HUTCHINSON     SUNNY     92  65  40 S30G38    29.76F
6HR MIN TEMP:  73; 6HR MAX TEMP:  93; 6HR PCP: TRACE;

NEWTON         SUNNY     89  68  49 S29G35    29.78F
PARSONS        MOSUNNY   87  70  56 S15G26    29.87S
6HR MIN TEMP:  70; 6HR MAX TEMP:  87;

WICHITA INTL   MOSUNNY   90  68  48 S26G38    29.79F
6HR MIN TEMP:  72; 6HR MAX TEMP:  90; 6HR PCP: TRACE;

WICHITA JABRA  SUNNY     87  68  52 S28G38    29.80S
6HR MIN TEMP:  72; 6HR MAX TEMP:  87;

WINFIELD       SUNNY     88  69  53 S22G36    29.83F
6HR MIN TEMP:  72; 6HR MAX TEMP:  88;

$$

KSZ007>012-019>026-033>040-048>060-102>105-281900-
NORTHEAST KANSAS

CITY           SKY/WX    TMP DP  RH WIND       PRES   REMARKS
CONCORDIA      MOSUNNY   91  68  46 SW21G30   29.72F HX  95
6HR MIN TEMP:  71; 6HR MAX TEMP:  91;

EMPORIA        SUNNY     87  70  56 SW25G36   29.81R
6HR MIN TEMP:  71; 6HR MAX TEMP:  87;

LAWRENCE       MOSUNNY   87  72  60 S22       29.79F
6HR MIN TEMP:  74; 6HR MAX TEMP:  87;

MANHATTAN      SUNNY     93  69  45 SW25G37   29.73S HX  98
6HR MIN TEMP:  74; 6HR MAX TEMP:  93; 6HR PCP:  0.03;

OLATHE IND     MOSUNNY   86  70  58 S22G32    29.83R
6HR MIN TEMP:  72; 6HR MAX TEMP:  86;

OLATHE EXE     PTSUNNY   84  71  65 SW20G26   29.82S
6HR MIN TEMP:  70; 6HR MAX TEMP:  85;

SALINA         SUNNY     94  67  41 S21G33    29.74F HX  97
6HR MIN TEMP:  74; 6HR MAX TEMP:  94; 6HR PCP: TRACE;

TOPEKA BILLARD MOSUNNY   87  72  60 S17G25    29.77F
6HR MIN TEMP:  74; 6HR MAX TEMP:  87;

TOPEKA FORBES  MOSUNNY   88  71  57 S20G29    29.78F
6HR MIN TEMP:  75; 6HR MAX TEMP:  88;

$$




USA.gov is the U.S. government's official web portal to all federal, state and local government web resources and services.